sat.trackr.live / text

‹ back to catalog

STARLINK-34957

NORAD 65388 · 2025-191K

PAYLOAD ACTIVE UNKNOWN

§ Identity

Operator
Country
US
Launch date
2025-08-30
Launch site
AFWTR
Launch vehicle
Mass (kg)
RCS (m²)

Purposes: comms

External: N2YO · Heavens-Above · Gunter

§ Orbital elements

Epoch: 2026-09-20T14:02:48.519456Z

Period
93.91 min
Inclination
97.2846°
Eccentricity
0.0001433
Mean motion
15.33446367 rev/d
Perigee alt
464.6 km
Apogee alt
466.5 km
Semi-major
6,843.7 km
B*
2.5661e-4
RAAN
129.6456°
Arg perigee
93.4864°
Mean anomaly
266.6543°
Rev number
5,965

§ Raw data

STARLINK-349571 65388U 25191K   26263.58528379  .00008219  00000+0  25661-3 0  99962 65388  97.2846 129.6456 0001433  93.4864 266.6543 15.33446367 59655

JSON: /api/v1/satellites/65388 · /tle

For live sub-satellite position, see the globe view (requires WebGL).

§ Visibility from observer

Set your observer location to see the next 7 days of passes ≥ 10°. The values pass through the URL so the page stays shareable.

No JS? Fill the form by hand. The geolocation button needs JavaScript.